Location: Newark
(41.7772°N, 74.7403°W)
Time: 08:03:00
(UTC+00:00)

Transit 4A - Visible Passes

Search period start: 26 May 2020 00:00
Search period end: 05 June 2020 00:00
Orbit: 869 x 976 km, 66.8° (Epoch: 23 May)

Date Brightness Start Highest point End Pass type
(mag) Time Alt. Az. Time Alt. Az. Time Alt. Az.
26 May 9.1 06:35:40 24° SE 06:37:43 30° ESE 06:42:43 10° NE visible
26 May 8.4 08:19:11 15° WSW 08:23:49 45° NW 08:29:28 10° NNE visible
27 May 8.4 06:44:49 33° SSE 06:46:52 45° ESE 06:52:25 10° NE visible
27 May 8.9 08:28:20 11° WSW 08:33:20 32° NW 08:38:36 10° NNE visible
28 May 7.9 06:53:56 39° S 06:56:04 68° ESE 07:01:55 10° NE visible
28 May 9.4 08:38:22 10° W 08:42:57 23° NW 08:47:38 10° N visible
29 May 9.8 05:19:30 14° ESE 05:19:51 14° ESE 05:22:52 10° ENE visible
29 May 7.7 07:03:00 38° SW 07:05:22 83° WNW 07:11:18 10° NNE visible
29 May 9.7 08:48:52 10° W 08:52:40 17° NW 08:56:31 10° N visible
30 May 9.2 05:28:31 23° ESE 05:28:52 23° ESE 05:33:19 10° ENE visible
30 May 8.1 07:12:01 30° WSW 07:14:44 57° NW 07:20:34 10° NNE visible
31 May 8.6 05:37:31 34° ESE 05:37:58 34° ESE 05:43:12 10° NE visible
31 May 8.6 07:21:00 22° WSW 07:24:12 39° NW 07:29:45 10° NNE visible
01 Jun 8.0 05:46:27 49° SE 05:47:07 52° ESE 05:52:50 10° NE visible
01 Jun 9.2 07:29:57 15° W 07:33:45 28° NW 07:38:50 10° NNE visible
02 Jun 10.0 04:11:52 10° E 04:11:52 10° E 04:11:58 10° E visible
02 Jun 7.7 05:55:22 61° S 05:56:22 78° ESE 06:02:17 10° NNE visible
02 Jun 9.6 07:39:03 10° W 07:43:24 21° NW 07:47:49 10° N visible
03 Jun 9.6 04:20:44 17° E 04:20:44 17° E 04:23:42 10° ENE visible
03 Jun 7.8 06:04:13 51° SW 06:05:41 72° WNW 06:11:37 10° NNE visible
03 Jun 10.0 07:49:41 10° WNW 07:53:08 16° NW 07:56:39 10° N visible
04 Jun 9.0 04:29:33 26° E 04:29:33 26° E 04:33:53 10° NE visible
04 Jun 8.3 06:13:03 35° WSW 06:15:05 50° NW 06:20:51 10° NNE visible
04 Jun 10.1 08:00:50 10° NW 08:02:59 12° NNW 08:05:09 10° N visible
